Location: Leipzig
(51.3392°N, 12.3528°E)
Time: 12:40:22
(UTC+01:00)

ISS - Pass Details

Date: 15 November 2017
Orbit: 402 x 407 km, 51.6° (Epoch: 21 November)

Event Time Altitude Azimuth Distance (km) Brightness Sun altitude
Exits shadow 06:28:16 - 252° (WSW) 1,536 -1.4 -9.4°
Reaches altitude 10° 06:28:43 10° 245° (WSW) 1,454 -1.4 -9.3°
Maximum altitude 06:29:59 12° 222° (SW) 1,347 -1.4 -9.1°
Drops below altitude 10° 06:31:15 10° 199° (SSW) 1,450 -1.0 -8.9°
Sets 06:34:22 0° 166° (SSE) 2,304 0.5 -8.5°
